Location: Berg
(48.4333°N, 13.9167°E)
Time: 23:23:50
(UTC+00:00)

Cosmos 1300 Rocket - Pass Details

Date: 18 September 2020
Orbit: 601 x 627 km, 82.5° (Epoch: 31 October)

Event Time Altitude Azimuth Distance (km) Brightness Sun altitude
Rises 18:16:33 0° 172° (S) 2,876 6.7 -11.7°
Reaches altitude 10° 18:18:49 10° 166° (SSE) 1,979 5.9 -12.1°
Maximum altitude 18:23:00 47° 93° (E) 834 3.8 -12.7°
Drops below altitude 10° 18:27:16 10° 21° (NNE) 2,008 6.2 -13.4°
Sets 18:29:34 0° 15° (NNE) 2,923 7.1 -13.8°
